Location: Jastrzębia Góra
(54.8312°N, 18.3037°E)
Time: 14:54:07
(UTC+01:00)

ISS - Pass Details

Date: 27 January 2019
Orbit: 403 x 411 km, 51.6° (Epoch: 18 February)

Event Time Altitude Azimuth Distance (km) Brightness Sun altitude
Rises 16:47:59 0° 198° (SSW) 2,324 0.7 -5.2°
Reaches altitude 10° 16:51:09 10° 165° (SSE) 1,471 -0.9 -5.6°
Maximum altitude 16:52:24 12° 143° (SE) 1,372 -1.3 -5.8°
Drops below altitude 10° 16:53:40 10° 120° (ESE) 1,476 -1.3 -5.9°
Enters shadow 16:55:27 - 97° (E) 1,896 -1.0 -6.2°
